Hourly Data Report for January 20, 2001

SHERBROOKE A
QUEBEC

45°26'00.000" N
71°41'00.000" W
241.40 m
7028124
71610
YSC

Download Data

Hourly Data (January 2001)
Hourly Data Report for January 20, 2001
TIME
LST
Temp Definition
°C
Dew Point Definition
°C
Rel Hum Definition
%
Precip. Amount Definition
mm

Wind Dir Definition
10's deg

Wind Spd Definition
km/h
Visibility Definition
km
Stn Press Definition
kPa
Hmdx Definition


Wind Chill Definition


Weather Definition


00:00 -13.6 -16.7 77   30 7 15.0 98.72   -18  
01:00 -16.2 -18.9 80   28 7 15.0 98.75   -21  
02:00 -17.8 -21.7 71   28 9 15.0 98.82   -24  
03:00 -17.5 -21.1 73   29 13 15.0 98.92   -25  
04:00 -18.9 -24.6 61   27 9 15.0 98.98   -25  
05:00 -19.7 -24.1 68   24 9 15.0 99.05   -26  
06:00 -20.9 -24.9 70   23 7 15.0 99.12   -27  
07:00 -21.4 -25.3 71   24 7 15.0 99.22   -27  
08:00 -23.3 -27.3 70     0 24.1 99.25     Mainly Clear
09:00 -20.2 -23.5 75     0 24.1 99.28     Mainly Clear
10:00 -17.8 -23.0 64     0 24.1 99.25     Mostly Cloudy
11:00 -16.2 -22.2 60     0 24.1 99.25     Mostly Cloudy
12:00 -15.1 -21.6 58   31 4 24.1 99.15   -18 Mainly Clear
13:00 -14.0 -20.4 58   26 6 24.1 99.08   -18 Mainly Clear
14:00 -13.5 -20.3 57     0 24.1 99.05     Mainly Clear
15:00 -12.0 -18.6 58     0 24.1 99.02     Mainly Clear
16:00 -13.0 -19.4 59     0 24.1 98.98     Mainly Clear
17:00 -16.2 -20.4 70     0 24.1 99.02     Mainly Clear
18:00 -19.5 -23.0 74     0 15.0 98.88      
19:00 -20.2 -23.6 74   8 6 15.0 98.92   -25  
20:00 -20.5 -23.8 75   8 6 15.0 98.88   -26  
21:00 -23.0 -26.9 70   9 9 15.0 98.85   -30  
22:00 -22.9 -26.8 70   8 4 15.0 98.79   -27  
23:00 -23.3 -27.0 72   7 7 15.0 98.69   -29  

Notes on Data Quality.

Legend

  • E = Estimated
  • M = Missing
  • NA = Not Available*
  • [empty] = Indicates an unobserved value
Date modified: